Time,TemperatureF,DewpointF,PressureIn,WindDirection,WindDirectionDegrees,WindSpeedMPH,WindSpeedGustMPH,Humidity,HourlyPrecipIn,Conditions,Clouds,dailyrainin,SolarRadiationWatts/m^2,SoftwareType,DateUTC
2013-09-21 00:01:00,59.7,53.2,29.88,NW,326,2.3,2.3,79,0.00,RA,,0.00,0.0,WeatherDisplay:10.37,2013-09-21 05:01:00,
2013-09-21 00:06:00,59.5,53.0,29.88,West,267,6.0,6.0,79,0.00,RA,,0.00,0.0,WeatherDisplay:10.37,2013-09-21 05:06:00,
2013-09-21 00:11:00,59.4,52.9,29.88,NW,311,0.0,0.0,79,0.00,CLR,,0.00,0.0,WeatherDisplay:10.37,2013-09-21 05:11:00,
2013-09-21 00:16:00,59.3,52.8,29.88,NW,306,1.2,1.2,79,0.00,CLR,,0.00,0.0,WeatherDisplay:10.37,2013-09-21 05:16:00,
2013-09-21 00:21:00,59.2,52.7,29.88,NW,319,0.0,0.1,79,0.00,CLR,,0.00,0.0,WeatherDisplay:10.37,2013-09-21 05:21:00,
2013-09-21 00:26:00,59.0,52.5,29.88,WNW,294,1.0,0.0,79,0.00,CLR,,0.00,0.0,WeatherDisplay:10.37,2013-09-21 05:26:00,
2013-09-21 00:31:00,59.0,52.5,29.88,NW,320,6.9,6.9,79,0.00,CLR,,0.00,0.0,WeatherDisplay:10.37,2013-09-21 05:31:00,
2013-09-21 00:36:00,59.0,52.5,29.88,NNW,342,4.6,4.6,79,0.00,CLR,,0.00,0.0,WeatherDisplay:10.37,2013-09-21 05:36:00,
2013-09-21 00:41:00,59.0,52.8,29.88,NW,325,4.6,4.6,80,0.00,CLR,,0.00,0.0,WeatherDisplay:10.37,2013-09-21 05:41:00,
2013-09-21 00:46:00,58.8,52.6,29.88,NNW,338,3.5,3.5,80,0.00,CLR,,0.00,0.0,WeatherDisplay:10.37,2013-09-21 05:46:00,
2013-09-21 00:51:00,58.7,52.2,29.88,NW,318,0.0,0.0,79,0.00,CLR,,0.00,0.0,WeatherDisplay:10.37,2013-09-21 05:51:00,
2013-09-21 00:56:00,58.5,52.4,29.88,NW,319,4.6,4.6,80,0.00,CLR,,0.00,0.0,WeatherDisplay:10.37,2013-09-21 05:56:00,
2013-09-21 01:01:00,58.5,52.4,29.88,NW,315,0.0,0.0,80,0.00,CLR,,0.00,0.0,WeatherDisplay:10.37,2013-09-21 06:01:00,
2013-09-21 01:06:00,58.4,52.3,29.88,WNW,286,0.0,0.0,80,0.00,CLR,,0.00,0.0,WeatherDisplay:10.37,2013-09-21 06:06:00,
2013-09-21 01:11:00,58.3,52.2,29.87,North,360,9.2,9.2,80,0.00,CLR,,0.00,0.0,WeatherDisplay:10.37,2013-09-21 06:11:00,
2013-09-21 01:16:00,58.2,52.1,29.88,NW,304,3.5,3.5,80,0.00,CLR,,0.00,0.0,WeatherDisplay:10.37,2013-09-21 06:16:00,
2013-09-21 01:21:00,58.2,52.1,29.88,NW,317,9.2,9.2,80,0.00,CLR,,0.00,0.0,WeatherDisplay:10.37,2013-09-21 06:21:00,
2013-09-21 01:26:00,58.1,52.0,29.88,NNW,327,12.7,12.7,80,0.00,CLR,,0.00,0.0,WeatherDisplay:10.37,2013-09-21 06:26:00,
2013-09-21 01:31:00,58.0,51.9,29.88,NW,326,0.0,0.9,80,0.00,CLR,,0.00,0.0,WeatherDisplay:10.37,2013-09-21 06:31:00,
2013-09-21 01:36:00,57.9,51.8,29.88,NW,326,0.0,0.2,80,0.00,CLR,,0.00,0.0,WeatherDisplay:10.37,2013-09-21 06:36:00,
2013-09-21 01:41:00,57.8,52.0,29.88,NW,325,1.2,1.2,81,0.00,CLR,,0.00,0.0,WeatherDisplay:10.37,2013-09-21 06:41:00,
2013-09-21 01:46:00,57.6,51.8,29.88,NW,323,2.3,2.3,81,0.00,CLR,,0.00,0.0,WeatherDisplay:10.37,2013-09-21 06:46:00,
2013-09-21 01:51:00,57.5,51.7,29.88,NW,321,0.0,0.0,81,0.00,CLR,,0.00,0.0,WeatherDisplay:10.37,2013-09-21 06:51:00,
2013-09-21 01:56:00,57.3,51.9,29.88,NW,313,0.0,0.0,82,0.00,CLR,,0.00,0.0,WeatherDisplay:10.37,2013-09-21 06:56:00,
2013-09-21 02:01:00,57.1,51.7,29.88,NNW,340,0.0,3.2,82,0.00,CLR,,0.00,0.0,WeatherDisplay:10.37,2013-09-21 07:01:00,
2013-09-21 02:06:00,57.0,51.6,29.88,NNW,327,3.5,0.0,82,0.00,CLR,,0.00,0.0,WeatherDisplay:10.37,2013-09-21 07:06:00,
2013-09-21 02:11:00,56.9,51.5,29.88,NW,325,2.3,0.0,82,0.00,CLR,,0.00,0.0,WeatherDisplay:10.37,2013-09-21 07:11:00,
2013-09-21 02:16:00,56.8,51.4,29.88,NNW,341,0.0,0.3,82,0.00,CLR,,0.00,0.0,WeatherDisplay:10.37,2013-09-21 07:16:00,
2013-09-21 02:21:00,56.6,51.5,29.88,NNW,338,5.8,5.8,83,0.00,CLR,,0.00,0.0,WeatherDisplay:10.37,2013-09-21 07:21:00,
2013-09-21 02:26:00,56.5,51.4,29.88,NNW,338,3.5,3.5,83,0.00,CLR,,0.00,0.0,WeatherDisplay:10.37,2013-09-21 07:26:00,
2013-09-21 02:31:00,56.3,51.2,29.88,NNW,338,0.0,0.2,83,0.00,CLR,,0.00,0.0,WeatherDisplay:10.37,2013-09-21 07:31:00,
2013-09-21 02:36:00,56.2,51.4,29.88,NNW,338,3.5,3.5,84,0.00,CLR,,0.00,0.0,WeatherDisplay:10.37,2013-09-21 07:36:00,
2013-09-21 02:41:00,56.1,51.3,29.87,NW,326,6.9,6.9,84,0.00,CLR,,0.00,0.0,WeatherDisplay:10.37,2013-09-21 07:41:00,
2013-09-21 02:47:00,56.0,51.2,29.87,NNW,327,5.8,5.8,84,0.00,CLR,,0.00,0.0,WeatherDisplay:10.37,2013-09-21 07:47:00,
2013-09-21 02:52:00,55.9,51.1,29.87,NW,326,3.5,3.5,84,0.00,CLR,,0.00,0.0,WeatherDisplay:10.37,2013-09-21 07:52:00,
2013-09-21 02:57:00,55.8,51.0,29.87,NNW,327,2.3,2.3,84,0.00,CLR,,0.00,0.0,WeatherDisplay:10.37,2013-09-21 07:57:00,
2013-09-21 03:02:00,55.7,50.9,29.87,NNW,327,0.0,0.0,84,0.00,CLR,,0.00,0.0,WeatherDisplay:10.37,2013-09-21 08:02:00,
2013-09-21 03:07:00,55.6,50.8,29.87,NNW,328,3.5,3.5,84,0.00,CLR,,0.00,0.0,WeatherDisplay:10.37,2013-09-21 08:07:00,
2013-09-21 03:12:00,55.5,50.7,29.87,NNW,327,4.6,4.6,84,0.00,CLR,,0.00,0.0,WeatherDisplay:10.37,2013-09-21 08:12:00,
2013-09-21 03:17:00,55.4,50.6,29.87,NW,326,0.0,0.0,84,0.00,CLR,,0.00,0.0,WeatherDisplay:10.37,2013-09-21 08:17:00,
2013-09-21 03:22:00,55.3,50.5,29.87,NNW,327,3.5,3.5,84,0.00,CLR,,0.00,0.0,WeatherDisplay:10.37,2013-09-21 08:22:00,
2013-09-21 03:27:00,55.1,50.7,29.87,NNW,327,1.2,0.0,85,0.00,CLR,,0.00,0.0,WeatherDisplay:10.37,2013-09-21 08:27:00,
2013-09-21 03:32:00,55.0,50.6,29.87,NNW,327,3.5,3.5,85,0.00,CLR,,0.00,0.0,WeatherDisplay:10.37,2013-09-21 08:32:00,
2013-09-21 03:37:00,55.0,50.6,29.87,NNW,327,0.0,0.0,85,0.00,CLR,,0.00,0.0,WeatherDisplay:10.37,2013-09-21 08:37:00,
2013-09-21 03:42:00,54.9,50.8,29.87,NNW,327,2.3,2.3,86,0.00,CLR,,0.00,0.0,WeatherDisplay:10.37,2013-09-21 08:42:00,
2013-09-21 03:47:00,54.8,50.7,29.87,NNW,327,0.0,0.0,86,0.00,CLR,,0.00,0.0,WeatherDisplay:10.37,2013-09-21 08:47:00,
2013-09-21 03:52:00,54.6,50.5,29.87,NW,326,0.0,0.0,86,0.00,CLR,,0.00,0.0,WeatherDisplay:10.37,2013-09-21 08:52:00,
2013-09-21 03:57:00,54.5,50.4,29.87,NNW,327,2.3,0.0,86,0.00,CLR,,0.00,0.0,WeatherDisplay:10.37,2013-09-21 08:57:00,
2013-09-21 04:02:00,54.4,50.3,29.88,NNW,327,0.0,0.0,86,0.00,CLR,,0.00,0.0,WeatherDisplay:10.37,2013-09-21 09:02:00,
2013-09-21 04:07:00,54.3,50.5,29.88,NNW,327,0.0,0.2,87,0.00,CLR,,0.00,0.0,WeatherDisplay:10.37,2013-09-21 09:07:00,
2013-09-21 04:12:00,54.2,50.4,29.88,NNW,327,0.0,0.2,87,0.00,CLR,,0.00,0.0,WeatherDisplay:10.37,2013-09-21 09:12:00,
2013-09-21 04:17:00,54.1,50.6,29.88,NW,325,0.0,0.0,88,0.00,CLR,,0.00,0.0,WeatherDisplay:10.37,2013-09-21 09:17:00,
2013-09-21 04:22:00,54.0,50.5,29.88,NW,325,0.0,0.6,88,0.00,CLR,,0.00,0.0,WeatherDisplay:10.37,2013-09-21 09:22:00,
2013-09-21 04:27:00,53.9,50.4,29.88,NW,325,5.8,0.0,88,0.00,CLR,,0.00,0.0,WeatherDisplay:10.37,2013-09-21 09:27:00,
2013-09-21 04:32:00,53.8,50.3,29.88,NNW,329,1.2,0.0,88,0.00,CLR,,0.00,0.0,WeatherDisplay:10.37,2013-09-21 09:32:00,
2013-09-21 04:37:00,53.7,50.2,29.88,NNW,329,1.2,0.0,88,0.00,CLR,,0.00,0.0,WeatherDisplay:10.37,2013-09-21 09:37:00,
2013-09-21 04:42:00,53.6,50.1,29.88,NNW,329,0.0,0.0,88,0.00,CLR,,0.00,0.0,WeatherDisplay:10.37,2013-09-21 09:42:00,
2013-09-21 04:47:00,53.5,50.3,29.88,NNW,329,0.0,0.0,89,0.00,CLR,,0.00,0.0,WeatherDisplay:10.37,2013-09-21 09:47:00,
2013-09-21 04:52:00,53.3,50.1,29.89,NNW,329,0.0,0.0,89,0.00,CLR,,0.00,0.0,WeatherDisplay:10.37,2013-09-21 09:52:00,
2013-09-21 04:57:00,53.2,50.0,29.89,NNW,329,0.0,0.0,89,0.00,CLR,,0.00,0.0,WeatherDisplay:10.37,2013-09-21 09:57:00,
2013-09-21 05:02:00,53.0,49.8,29.89,NNW,327,5.8,5.8,89,0.00,CLR,,0.00,0.0,WeatherDisplay:10.37,2013-09-21 10:02:00,
2013-09-21 05:07:00,53.0,49.8,29.89,NNW,327,0.0,0.0,89,0.00,CLR,,0.00,0.0,WeatherDisplay:10.37,2013-09-21 10:07:00,
2013-09-21 05:12:00,52.8,49.9,29.89,NNW,327,1.2,0.0,90,0.00,CLR,,0.00,0.0,WeatherDisplay:10.37,2013-09-21 10:12:00,
2013-09-21 05:17:00,52.7,49.8,29.89,NNW,327,0.0,0.0,90,0.00,CLR,,0.00,0.0,WeatherDisplay:10.37,2013-09-21 10:17:00,
2013-09-21 05:22:00,52.6,49.8,29.90,NNW,327,0.0,0.0,90,0.00,CLR,,0.00,0.0,WeatherDisplay:10.37,2013-09-21 10:22:00,
2013-09-21 05:27:00,52.5,49.7,29.90,NNW,327,0.0,0.0,90,0.00,CLR,,0.00,0.0,WeatherDisplay:10.37,2013-09-21 10:27:00,
2013-09-21 05:32:00,52.4,49.6,29.89,NNW,327,0.0,0.0,90,0.00,CLR,,0.00,0.0,WeatherDisplay:10.37,2013-09-21 10:32:00,
2013-09-21 05:37:00,52.3,49.5,29.90,NNW,327,0.0,0.2,90,0.00,CLR,,0.00,0.0,WeatherDisplay:10.37,2013-09-21 10:37:00,
2013-09-21 05:42:00,52.3,49.5,29.90,NNW,328,0.0,0.0,90,0.00,CLR,,0.00,0.0,WeatherDisplay:10.37,2013-09-21 10:42:00,
2013-09-21 05:47:00,52.2,49.4,29.90,NNW,328,0.0,0.0,90,0.00,CLR,,0.00,0.0,WeatherDisplay:10.37,2013-09-21 10:47:00,
2013-09-21 05:52:00,52.2,49.4,29.90,NNW,328,0.0,0.0,90,0.00,CLR,,0.00,0.0,WeatherDisplay:10.37,2013-09-21 10:52:00,
2013-09-21 05:57:00,52.1,49.3,29.90,NNW,328,0.0,0.0,90,0.00,CLR,,0.00,0.0,WeatherDisplay:10.37,2013-09-21 10:57:00,
2013-09-21 06:02:00,52.0,49.5,29.90,NNW,327,0.0,0.0,91,0.00,CLR,,0.00,0.0,WeatherDisplay:10.37,2013-09-21 11:02:00,
2013-09-21 06:07:00,51.9,49.4,29.90,NNW,328,0.0,0.0,91,0.00,CLR,,0.00,0.0,WeatherDisplay:10.37,2013-09-21 11:07:00,
2013-09-21 06:13:00,51.9,49.4,29.90,NNW,327,0.0,0.0,91,0.00,CLR,,0.00,0.0,WeatherDisplay:10.37,2013-09-21 11:13:00,
2013-09-21 06:18:00,51.8,49.3,29.91,NNW,327,0.0,0.0,91,0.00,CLR,,0.00,0.0,WeatherDisplay:10.37,2013-09-21 11:18:00,
2013-09-21 06:23:00,51.7,49.2,29.91,NNW,329,1.2,1.2,91,0.00,CLR,,0.00,0.0,WeatherDisplay:10.37,2013-09-21 11:23:00,
2013-09-21 06:28:00,51.7,49.2,29.91,NNW,329,0.0,0.0,91,0.00,CLR,,0.00,0.0,WeatherDisplay:10.37,2013-09-21 11:28:00,
2013-09-21 06:33:00,51.6,49.1,29.91,NNW,329,0.0,0.0,91,0.00,CLR,,0.00,0.0,WeatherDisplay:10.37,2013-09-21 11:33:00,
2013-09-21 06:38:00,51.6,49.1,29.91,NNW,329,0.0,0.0,91,0.00,CLR,,0.00,0.0,WeatherDisplay:10.37,2013-09-21 11:38:00,
2013-09-21 06:43:00,51.5,49.0,29.91,NNW,329,0.0,0.0,91,0.00,CLR,,0.00,0.0,WeatherDisplay:10.37,2013-09-21 11:43:00,
2013-09-21 06:49:00,51.5,49.0,29.92,NNW,329,2.3,0.0,91,0.00,OVC,,0.00,5.0,WeatherDisplay:10.37,2013-09-21 11:49:00,
2013-09-21 06:54:00,51.5,49.0,29.92,NNW,329,0.0,0.0,91,0.00,BKN,,0.00,7.0,WeatherDisplay:10.37,2013-09-21 11:54:00,
2013-09-21 06:59:00,51.5,49.3,29.92,NNW,329,0.0,0.0,92,0.00,BKN,,0.00,9.0,WeatherDisplay:10.37,2013-09-21 11:59:00,
2013-09-21 07:04:00,51.5,49.3,29.92,NNW,329,0.0,0.0,92,0.00,BKN,,0.00,12.0,WeatherDisplay:10.37,2013-09-21 12:04:00,
2013-09-21 07:09:00,51.4,49.2,29.93,NNW,329,0.0,0.0,92,0.00,BKN,,0.00,14.0,WeatherDisplay:10.37,2013-09-21 12:09:00,
2013-09-21 07:14:00,51.4,49.2,29.92,NNW,329,0.0,0.0,92,0.00,BKN,,0.00,18.0,WeatherDisplay:10.37,2013-09-21 12:14:00,
2013-09-21 07:19:00,51.4,49.2,29.93,NNW,329,0.0,0.0,92,0.00,BKN,,0.00,21.0,WeatherDisplay:10.37,2013-09-21 12:19:00,
2013-09-21 07:24:00,51.5,49.3,29.93,NNW,329,0.0,0.0,92,0.00,SCT,,0.00,88.0,WeatherDisplay:10.37,2013-09-21 12:24:00,
2013-09-21 07:29:00,51.5,49.3,29.93,NNW,329,0.0,0.0,92,0.00,BKN,,0.00,25.0,WeatherDisplay:10.37,2013-09-21 12:29:00,
2013-09-21 07:34:00,51.6,49.4,29.93,NNW,329,0.0,0.1,92,0.00,BKN,,0.00,32.0,WeatherDisplay:10.37,2013-09-21 12:34:00,
2013-09-21 07:44:00,51.8,49.5,29.93,NNW,328,1.2,0.0,92,0.00,CLR,,0.00,28.0,WeatherDisplay:10.37,2013-09-21 12:44:00,
2013-09-21 07:48:00,51.9,49.6,29.93,NNW,329,1.2,0.0,92,0.00,BKN,,0.00,30.0,WeatherDisplay:10.37,2013-09-21 12:48:00,
2013-09-21 07:54:00,52.0,49.7,29.93,NNW,328,1.2,0.0,92,0.00,BKN,,0.00,32.0,WeatherDisplay:10.37,2013-09-21 12:54:00,
2013-09-21 07:59:00,52.1,49.8,29.93,NNW,327,0.0,0.0,92,0.00,BKN,,0.00,32.0,WeatherDisplay:10.37,2013-09-21 12:59:00,
2013-09-21 08:04:00,52.3,50.0,29.93,NNW,327,5.0,5.0,92,0.00,BKN,,0.00,33.0,WeatherDisplay:10.37,2013-09-21 13:04:00,
2013-09-21 08:09:00,52.4,50.1,29.94,NNW,327,3.5,3.5,92,0.00,BKN,,0.00,37.0,WeatherDisplay:10.37,2013-09-21 13:09:00,
2013-09-21 08:14:00,52.6,50.0,29.94,NW,326,0.0,0.0,91,0.00,BKN,,0.00,37.0,WeatherDisplay:10.37,2013-09-21 13:14:00,
2013-09-21 08:19:00,52.8,50.2,29.94,NNW,331,3.5,3.5,91,0.00,BKN,,0.00,44.0,WeatherDisplay:10.37,2013-09-21 13:19:00,
2013-09-21 08:24:00,53.0,50.4,29.94,NNW,344,5.8,5.8,91,0.00,BKN,,0.00,37.0,WeatherDisplay:10.37,2013-09-21 13:24:00,
2013-09-21 08:29:00,53.2,50.6,29.94,NNW,342,0.0,0.0,91,0.00,BKN,,0.00,37.0,WeatherDisplay:10.37,2013-09-21 13:29:00,
2013-09-21 08:34:00,53.4,50.5,29.94,NNW,333,3.5,3.5,90,0.00,BKN,,0.00,37.0,WeatherDisplay:10.37,2013-09-21 13:34:00,
2013-09-21 08:39:00,53.5,50.6,29.94,North,355,6.9,6.9,90,0.00,BKN,,0.00,39.0,WeatherDisplay:10.37,2013-09-21 13:39:00,
2013-09-21 08:44:00,53.7,50.8,29.94,NNW,330,6.9,6.9,90,0.00,BKN,,0.00,39.0,WeatherDisplay:10.37,2013-09-21 13:44:00,
2013-09-21 08:49:00,53.9,50.7,29.94,NNW,332,5.8,5.8,89,0.00,BKN,,0.00,39.0,WeatherDisplay:10.37,2013-09-21 13:49:00,
2013-09-21 08:54:00,54.1,50.9,29.94,NNW,348,3.5,3.5,89,0.00,BKN,,0.00,39.0,WeatherDisplay:10.37,2013-09-21 13:54:00,
2013-09-21 08:59:00,54.3,51.1,29.94,NNW,333,6.9,6.9,89,0.00,BKN,,0.00,39.0,WeatherDisplay:10.37,2013-09-21 13:59:00,
2013-09-21 09:04:00,54.5,51.3,29.94,NNW,333,4.6,4.6,89,0.00,BKN,,0.00,39.0,WeatherDisplay:10.37,2013-09-21 14:04:00,
2013-09-21 09:09:00,54.7,51.5,29.94,NNW,336,2.3,0.0,89,0.00,BKN,,0.00,40.0,WeatherDisplay:10.37,2013-09-21 14:09:00,
2013-09-21 09:14:00,55.0,51.8,29.94,NNW,337,0.0,0.0,89,0.00,BKN,,0.00,42.0,WeatherDisplay:10.37,2013-09-21 14:14:00,
2013-09-21 09:19:00,55.3,51.8,29.94,NNW,340,5.8,5.8,88,0.00,BKN,,0.00,111.0,WeatherDisplay:10.37,2013-09-21 14:19:00,
2013-09-21 09:24:00,55.5,51.7,29.94,NNW,337,4.6,4.6,87,0.00,BKN,,0.00,40.0,WeatherDisplay:10.37,2013-09-21 14:24:00,
2013-09-21 09:29:00,55.8,52.0,29.94,NNW,337,4.6,4.6,87,0.00,BKN,,0.00,40.0,WeatherDisplay:10.37,2013-09-21 14:29:00,
2013-09-21 09:34:00,56.0,51.9,29.94,NNW,340,8.1,8.1,86,0.00,BKN,,0.00,39.0,WeatherDisplay:10.37,2013-09-21 14:34:00,
2013-09-21 09:39:00,56.2,51.7,29.94,NNW,334,2.3,0.0,85,0.00,BKN,,0.00,40.0,WeatherDisplay:10.37,2013-09-21 14:39:00,
2013-09-21 09:44:00,56.5,52.0,29.94,NNW,337,1.2,0.0,85,0.00,BKN,,0.00,42.0,WeatherDisplay:10.37,2013-09-21 14:44:00,
2013-09-21 09:49:00,56.7,52.2,29.94,NNW,336,0.0,0.0,85,0.00,BKN,,0.00,44.0,WeatherDisplay:10.37,2013-09-21 14:49:00,
2013-09-21 09:54:00,57.0,52.2,29.94,NNW,344,3.5,3.5,84,0.00,BKN,,0.00,40.0,WeatherDisplay:10.37,2013-09-21 14:54:00,
2013-09-21 09:59:00,57.4,52.6,29.94,NNW,341,6.9,6.9,84,0.00,BKN,,0.00,40.0,WeatherDisplay:10.37,2013-09-21 14:59:00,
2013-09-21 10:04:00,57.7,52.6,29.94,NNW,341,3.5,3.5,83,0.00,OVC,,0.00,42.0,WeatherDisplay:10.37,2013-09-21 15:04:00,
2013-09-21 10:09:00,58.2,52.7,29.94,NNW,341,5.8,5.8,82,0.00,OVC,,0.00,42.0,WeatherDisplay:10.37,2013-09-21 15:09:00,
2013-09-21 10:14:00,58.4,52.6,29.94,NNW,328,3.0,3.0,81,0.00,OVC,,0.00,44.0,WeatherDisplay:10.37,2013-09-21 15:14:00,
2013-09-21 10:19:00,59.0,53.8,29.94,NW,325,3.5,3.5,83,0.00,BKN,,0.00,54.0,WeatherDisplay:10.37,2013-09-21 15:19:00,
2013-09-21 10:24:00,59.2,52.3,29.94,NW,325,0.0,0.7,78,0.00,BKN,,0.00,183.0,WeatherDisplay:10.37,2013-09-21 15:24:00,
2013-09-21 10:29:00,59.7,52.8,29.94,NW,325,4.6,4.6,78,0.00,BKN,,0.00,671.0,WeatherDisplay:10.37,2013-09-21 15:29:00,
2013-09-21 10:34:00,60.0,52.4,29.94,NNW,331,0.0,0.0,76,0.00,FEW,,0.00,686.0,WeatherDisplay:10.37,2013-09-21 15:34:00,
2013-09-21 10:39:00,60.4,52.8,29.94,NNW,330,3.5,3.5,76,0.00,CLR,,0.00,694.0,WeatherDisplay:10.37,2013-09-21 15:39:00,
2013-09-21 10:44:00,61.0,53.0,29.94,NNW,330,3.5,3.5,75,0.00,CLR,,0.00,705.0,WeatherDisplay:10.37,2013-09-21 15:44:00,
2013-09-21 10:49:00,61.4,51.9,29.94,North,360,6.9,6.9,71,0.00,CLR,,0.00,722.0,WeatherDisplay:10.37,2013-09-21 15:49:00,
2013-09-21 10:54:00,61.9,52.4,29.94,NNW,346,6.9,6.9,71,0.00,CLR,,0.00,728.0,WeatherDisplay:10.37,2013-09-21 15:54:00,
2013-09-21 10:59:00,62.6,52.7,29.94,NW,325,5.8,5.8,70,0.00,CLR,,0.00,740.0,WeatherDisplay:10.37,2013-09-21 15:59:00,
2013-09-21 11:04:00,63.2,52.1,29.94,NNW,330,5.8,5.8,67,0.00,CLR,,0.00,805.0,WeatherDisplay:10.37,2013-09-21 16:04:00,
2013-09-21 11:09:00,63.7,52.5,29.94,WSW,254,11.5,11.5,67,0.00,CLR,,0.00,884.0,WeatherDisplay:10.37,2013-09-21 16:09:00,
2013-09-21 11:14:00,63.7,50.9,29.94,NW,318,5.8,5.8,63,0.00,CLR,,0.00,884.0,WeatherDisplay:10.37,2013-09-21 16:14:00,
2013-09-21 11:19:00,63.8,51.0,29.94,NNW,333,6.9,6.9,63,0.00,CLR,,0.00,814.0,WeatherDisplay:10.37,2013-09-21 16:19:00,
2013-09-21 11:24:00,64.3,51.0,29.93,WNW,303,12.7,12.7,62,0.00,CLR,,0.00,844.0,WeatherDisplay:10.37,2013-09-21 16:24:00,
2013-09-21 11:29:00,64.7,50.9,29.94,NNW,340,10.4,10.4,61,0.00,CLR,,0.00,793.0,WeatherDisplay:10.37,2013-09-21 16:29:00,
2013-09-21 11:34:00,64.8,51.0,29.93,NNE,28,10.4,10.4,61,0.00,CLR,,0.00,810.0,WeatherDisplay:10.37,2013-09-21 16:34:00,
2013-09-21 11:39:00,65.0,51.7,29.93,NNW,336,5.8,0.0,62,0.00,CLR,,0.00,861.0,WeatherDisplay:10.37,2013-09-21 16:39:00,
2013-09-21 11:44:00,65.4,51.6,29.93,WNW,300,8.0,8.0,61,0.00,CLR,,0.00,823.0,WeatherDisplay:10.37,2013-09-21 16:44:00,
2013-09-21 11:49:00,65.9,51.6,29.93,NNW,327,4.6,4.6,60,0.00,CLR,,0.00,905.0,WeatherDisplay:10.37,2013-09-21 16:49:00,
2013-09-21 11:54:00,66.0,51.3,29.93,NW,311,10.4,10.4,59,0.00,FEW,,0.00,169.0,WeatherDisplay:10.37,2013-09-21 16:54:00,
2013-09-21 11:59:00,66.0,51.7,29.93,NNW,329,3.5,3.5,60,0.00,FEW,,0.00,860.0,WeatherDisplay:10.37,2013-09-21 16:59:00,
2013-09-21 12:04:00,66.7,51.5,29.93,West,281,9.2,9.2,58,0.00,CLR,,0.00,853.0,WeatherDisplay:10.37,2013-09-21 17:04:00,
2013-09-21 12:09:00,67.0,51.3,29.93,NW,325,11.5,11.5,57,0.00,CLR,,0.00,336.0,WeatherDisplay:10.37,2013-09-21 17:09:00,
2013-09-21 12:14:00,66.8,50.1,29.93,NNW,340,5.8,5.8,55,0.00,FEW,,0.00,837.0,WeatherDisplay:10.37,2013-09-21 17:14:00,
2013-09-21 12:19:00,67.0,50.8,29.93,WNW,296,3.5,3.5,56,0.00,FEW,,0.00,837.0,WeatherDisplay:10.37,2013-09-21 17:19:00,
2013-09-21 12:24:00,67.2,51.0,29.93,NW,313,9.2,9.2,56,0.00,CLR,,0.00,844.0,WeatherDisplay:10.37,2013-09-21 17:24:00,
2013-09-21 12:29:00,67.3,50.6,29.93,NNW,333,11.5,11.5,55,0.00,CLR,,0.00,846.0,WeatherDisplay:10.37,2013-09-21 17:29:00,
2013-09-21 12:34:00,67.5,51.2,29.93,NW,318,10.4,10.4,56,0.00,CLR,,0.00,856.0,WeatherDisplay:10.37,2013-09-21 17:34:00,
2013-09-21 12:39:00,67.8,50.0,29.93,NNE,15,11.5,11.5,53,0.00,CLR,,0.00,844.0,WeatherDisplay:10.37,2013-09-21 17:39:00,
2013-09-21 12:44:00,68.1,51.8,29.93,NW,306,0.0,0.0,56,0.00,CLR,,0.00,840.0,WeatherDisplay:10.37,2013-09-21 17:44:00,
2013-09-21 12:49:00,68.6,51.8,29.92,WNW,300,0.0,0.0,55,0.00,CLR,,0.00,909.0,WeatherDisplay:10.37,2013-09-21 17:49:00,
2013-09-21 12:54:00,69.0,51.7,29.92,NW,308,4.6,4.6,54,0.00,CLR,,0.00,916.0,WeatherDisplay:10.37,2013-09-21 17:54:00,
2013-09-21 13:00:00,69.0,51.2,29.92,WSW,257,4.6,4.6,53,0.00,CLR,,0.00,854.0,WeatherDisplay:10.37,2013-09-21 18:00:00,
2013-09-21 13:05:00,69.4,52.0,29.92,West,273,6.9,6.9,54,0.00,CLR,,0.00,919.0,WeatherDisplay:10.37,2013-09-21 18:05:00,
2013-09-21 13:10:00,69.4,51.0,29.92,West,275,0.0,0.0,52,0.00,FEW,,0.00,169.0,WeatherDisplay:10.37,2013-09-21 18:10:00,
2013-09-21 13:15:00,68.7,51.9,29.92,WNW,298,4.6,4.6,55,0.00,SCT,,0.00,884.0,WeatherDisplay:10.37,2013-09-21 18:15:00,
2013-09-21 13:20:00,69.0,50.6,29.92,NW,314,11.5,11.5,52,0.00,SCT,,0.00,874.0,WeatherDisplay:10.37,2013-09-21 18:20:00,
2013-09-21 13:25:00,69.2,50.8,29.92,NNW,340,5.8,5.8,52,0.00,CLR,,0.00,877.0,WeatherDisplay:10.37,2013-09-21 18:25:00,
2013-09-21 13:30:00,69.6,52.2,29.91,WNW,292,5.8,5.8,54,0.00,CLR,,0.00,847.0,WeatherDisplay:10.37,2013-09-21 18:30:00,
2013-09-21 13:35:00,69.8,50.9,29.91,NW,318,5.8,5.8,51,0.00,CLR,,0.00,844.0,WeatherDisplay:10.37,2013-09-21 18:35:00,
2013-09-21 13:40:00,70.3,51.8,29.91,NW,324,4.6,4.6,52,0.00,CLR,,0.00,889.0,WeatherDisplay:10.37,2013-09-21 18:40:00,
2013-09-21 13:45:00,70.5,51.5,29.91,WNW,289,6.9,6.9,51,0.00,FEW,,0.00,935.0,WeatherDisplay:10.37,2013-09-21 18:45:00,
2013-09-21 13:50:00,70.8,52.8,29.91,NNW,336,3.5,3.5,53,0.00,FEW,,0.00,844.0,WeatherDisplay:10.37,2013-09-21 18:50:00,
2013-09-21 13:55:00,70.9,50.8,29.91,NW,325,2.3,2.3,49,0.00,CLR,,0.00,802.0,WeatherDisplay:10.37,2013-09-21 18:55:00,
2013-09-21 14:00:00,70.9,51.3,29.91,West,275,9.2,9.2,50,0.00,CLR,,0.00,789.0,WeatherDisplay:10.37,2013-09-21 19:00:00,
2013-09-21 14:05:00,70.9,51.9,29.91,West,263,0.0,0.0,51,0.00,CLR,,0.00,773.0,WeatherDisplay:10.37,2013-09-21 19:05:00,
2013-09-21 14:10:00,71.0,51.4,29.91,WNW,283,0.0,0.0,50,0.00,CLR,,0.00,766.0,WeatherDisplay:10.37,2013-09-21 19:10:00,
2013-09-21 14:15:00,71.4,52.3,29.91,NW,314,5.8,5.8,51,0.00,CLR,,0.00,761.0,WeatherDisplay:10.37,2013-09-21 19:15:00,
2013-09-21 14:20:00,71.8,51.6,29.90,NW,308,6.9,6.9,49,0.00,CLR,,0.00,752.0,WeatherDisplay:10.37,2013-09-21 19:20:00,
2013-09-21 14:25:00,72.3,52.1,29.90,NW,308,2.3,0.0,49,0.00,CLR,,0.00,745.0,WeatherDisplay:10.37,2013-09-21 19:25:00,
2013-09-21 14:30:00,72.3,51.5,29.90,NW,306,6.9,6.9,48,0.00,CLR,,0.00,735.0,WeatherDisplay:10.37,2013-09-21 19:30:00,
2013-09-21 14:35:00,72.0,51.8,29.90,West,259,3.5,3.5,49,0.00,CLR,,0.00,726.0,WeatherDisplay:10.37,2013-09-21 19:35:00,
2013-09-21 14:40:00,71.6,51.4,29.90,West,260,3.5,3.5,49,0.00,CLR,,0.00,712.0,WeatherDisplay:10.37,2013-09-21 19:40:00,
2013-09-21 14:45:00,71.1,51.0,29.90,WNW,296,3.5,3.5,49,0.00,CLR,,0.00,712.0,WeatherDisplay:10.37,2013-09-21 19:45:00,
2013-09-21 14:50:00,71.3,51.1,29.89,SW,225,2.3,0.0,49,0.00,CLR,,0.00,705.0,WeatherDisplay:10.37,2013-09-21 19:50:00,
2013-09-21 14:55:00,71.5,51.3,29.89,NW,308,13.8,13.8,49,0.00,CLR,,0.00,686.0,WeatherDisplay:10.37,2013-09-21 19:55:00,
2013-09-21 15:00:00,71.8,52.2,29.89,NW,315,10.4,10.4,50,0.00,CLR,,0.00,675.0,WeatherDisplay:10.37,2013-09-21 20:00:00,
2013-09-21 15:05:00,72.3,52.6,29.89,NW,325,4.6,4.6,50,0.00,FEW,,0.00,666.0,WeatherDisplay:10.37,2013-09-21 20:05:00,
2013-09-21 15:10:00,72.5,52.2,29.89,NW,308,6.9,6.9,49,0.00,FEW,,0.00,666.0,WeatherDisplay:10.37,2013-09-21 20:10:00,
2013-09-21 15:15:00,72.7,52.4,29.88,North,351,3.5,3.5,49,0.00,FEW,,0.00,638.0,WeatherDisplay:10.37,2013-09-21 20:15:00,
2013-09-21 15:20:00,72.9,52.6,29.88,NW,322,1.2,0.0,49,0.00,FEW,,0.00,626.0,WeatherDisplay:10.37,2013-09-21 20:20:00,
2013-09-21 15:25:00,72.8,52.0,29.88,West,263,5.8,0.0,48,0.00,FEW,,0.00,612.0,WeatherDisplay:10.37,2013-09-21 20:25:00,
2013-09-21 15:30:00,73.0,53.3,29.88,WNW,287,4.6,4.6,50,0.00,FEW,,0.00,601.0,WeatherDisplay:10.37,2013-09-21 20:30:00,
2013-09-21 15:35:00,72.9,52.1,29.88,WNW,302,5.8,5.8,48,0.00,FEW,,0.00,584.0,WeatherDisplay:10.37,2013-09-21 20:35:00,
2013-09-21 15:40:00,73.0,52.1,29.88,WNW,295,1.2,0.0,48,0.00,FEW,,0.00,577.0,WeatherDisplay:10.37,2013-09-21 20:40:00,
2013-09-21 15:45:00,73.2,52.9,29.88,NW,307,11.5,11.5,49,0.00,FEW,,0.00,559.0,WeatherDisplay:10.37,2013-09-21 20:45:00,
2013-09-21 15:50:00,73.4,53.1,29.88,NNW,333,3.5,0.0,49,0.00,FEW,,0.00,545.0,WeatherDisplay:10.37,2013-09-21 20:50:00,
2013-09-21 15:55:00,73.6,52.7,29.88,West,265,0.0,0.0,48,0.00,FEW,,0.00,531.0,WeatherDisplay:10.37,2013-09-21 20:55:00,
2013-09-21 16:01:00,73.8,52.9,29.88,West,275,6.9,6.9,48,0.00,FEW,,0.00,515.0,WeatherDisplay:10.37,2013-09-21 21:01:00,
2013-09-21 16:06:00,73.6,52.7,29.88,North,355,4.6,0.0,48,0.00,FEW,,0.00,504.0,WeatherDisplay:10.37,2013-09-21 21:06:00,
2013-09-21 16:11:00,73.9,52.4,29.88,WNW,283,6.9,6.9,47,0.00,FEW,,0.00,485.0,WeatherDisplay:10.37,2013-09-21 21:11:00,
2013-09-21 16:16:00,73.7,51.6,29.88,NNW,346,3.5,3.5,46,0.00,FEW,,0.00,469.0,WeatherDisplay:10.37,2013-09-21 21:16:00,
2013-09-21 16:21:00,73.6,52.1,29.88,West,272,3.5,3.5,47,0.00,FEW,,0.00,454.0,WeatherDisplay:10.37,2013-09-21 21:21:00,
2013-09-21 16:26:00,73.6,52.1,29.88,NW,304,9.2,9.2,47,0.00,FEW,,0.00,439.0,WeatherDisplay:10.37,2013-09-21 21:26:00,
2013-09-21 16:31:00,73.9,53.5,29.88,NW,309,0.0,0.0,49,0.00,FEW,,0.00,425.0,WeatherDisplay:10.37,2013-09-21 21:31:00,
2013-09-21 16:36:00,73.9,52.4,29.88,West,267,0.0,0.2,47,0.00,FEW,,0.00,410.0,WeatherDisplay:10.37,2013-09-21 21:36:00,
2013-09-21 16:41:00,73.0,51.6,29.88,WNW,291,0.0,0.0,47,0.00,FEW,,0.00,394.0,WeatherDisplay:10.37,2013-09-21 21:41:00,
2013-09-21 16:46:00,72.6,51.8,29.88,NW,321,10.4,10.4,48,0.00,FEW,,0.00,376.0,WeatherDisplay:10.37,2013-09-21 21:46:00,
2013-09-21 16:51:00,72.8,52.5,29.88,NNW,336,5.8,5.8,49,0.00,FEW,,0.00,360.0,WeatherDisplay:10.37,2013-09-21 21:51:00,
2013-09-21 16:56:00,73.2,52.3,29.88,NNW,337,6.9,6.9,48,0.00,SCT,,0.00,345.0,WeatherDisplay:10.37,2013-09-21 21:56:00,
2013-09-21 17:01:00,73.0,52.1,29.88,WNW,282,0.0,0.0,48,0.00,SCT,,0.00,329.0,WeatherDisplay:10.37,2013-09-21 22:01:00,
2013-09-21 17:06:00,72.9,52.6,29.88,WNW,296,3.5,3.5,49,0.00,SCT,,0.00,315.0,WeatherDisplay:10.37,2013-09-21 22:06:00,
2013-09-21 17:11:00,73.0,51.6,29.88,North,355,10.4,10.4,47,0.00,SCT,,0.00,297.0,WeatherDisplay:10.37,2013-09-21 22:11:00,
2013-09-21 17:16:00,73.1,52.2,29.88,NNE,19,0.0,0.0,48,0.00,SCT,,0.00,279.0,WeatherDisplay:10.37,2013-09-21 22:16:00,
2013-09-21 17:21:00,72.9,52.1,29.88,North,350,8.1,8.1,48,0.00,SCT,,0.00,264.0,WeatherDisplay:10.37,2013-09-21 22:21:00,
2013-09-21 17:26:00,73.1,53.4,29.87,NNW,335,0.0,0.2,50,0.00,SCT,,0.00,248.0,WeatherDisplay:10.37,2013-09-21 22:26:00,
2013-09-21 17:31:00,72.9,52.1,29.88,WNW,282,0.0,0.0,48,0.00,SCT,,0.00,234.0,WeatherDisplay:10.37,2013-09-21 22:31:00,
2013-09-21 17:36:00,72.4,52.2,29.87,NW,313,1.2,0.0,49,0.00,SCT,,0.00,214.0,WeatherDisplay:10.37,2013-09-21 22:36:00,
2013-09-21 17:41:00,72.4,52.2,29.87,NW,314,0.0,0.0,49,0.00,SCT,,0.00,200.0,WeatherDisplay:10.37,2013-09-21 22:41:00,
2013-09-21 17:46:00,72.6,52.3,29.87,NW,313,0.0,0.0,49,0.00,SCT,,0.00,186.0,WeatherDisplay:10.37,2013-09-21 22:46:00,
2013-09-21 17:51:00,72.3,52.6,29.87,NW,313,0.0,0.0,50,0.00,SCT,,0.00,171.0,WeatherDisplay:10.37,2013-09-21 22:51:00,
2013-09-21 17:56:00,72.1,53.0,29.87,NW,323,0.0,1.3,51,0.00,SCT,,0.00,156.0,WeatherDisplay:10.37,2013-09-21 22:56:00,
2013-09-21 18:01:00,72.1,51.9,29.87,NW,323,0.0,0.0,49,0.00,SCT,,0.00,139.0,WeatherDisplay:10.37,2013-09-21 23:01:00,
2013-09-21 18:06:00,72.0,52.3,29.87,NW,323,0.0,0.0,50,0.00,SCT,,0.00,116.0,WeatherDisplay:10.37,2013-09-21 23:06:00,
2013-09-21 18:11:00,72.1,52.4,29.87,NW,323,0.0,0.0,50,0.00,BKN,,0.00,98.0,WeatherDisplay:10.37,2013-09-21 23:11:00,
2013-09-21 18:16:00,72.3,52.1,29.87,NW,323,0.0,0.0,49,0.00,BKN,,0.00,81.0,WeatherDisplay:10.37,2013-09-21 23:16:00,
2013-09-21 18:21:00,72.4,52.7,29.87,NW,323,0.0,0.0,50,0.00,BKN,,0.00,35.0,WeatherDisplay:10.37,2013-09-21 23:21:00,
2013-09-21 18:26:00,72.3,52.6,29.87,NW,322,0.0,0.0,50,0.00,BKN,,0.00,21.0,WeatherDisplay:10.37,2013-09-21 23:26:00,
2013-09-21 18:31:00,71.8,52.2,29.87,NW,323,4.6,0.0,50,0.00,BKN,,0.00,19.0,WeatherDisplay:10.37,2013-09-21 23:31:00,
2013-09-21 18:36:00,71.6,52.5,29.87,NW,322,0.0,0.0,51,0.00,BKN,,0.00,16.0,WeatherDisplay:10.37,2013-09-21 23:36:00,
2013-09-21 18:41:00,71.0,52.5,29.88,NW,323,0.0,0.0,52,0.00,BKN,,0.00,12.0,WeatherDisplay:10.37,2013-09-21 23:41:00,
2013-09-21 18:46:00,70.6,52.1,29.88,NW,323,0.0,0.0,52,0.00,BKN,,0.00,11.0,WeatherDisplay:10.37,2013-09-21 23:46:00,
2013-09-21 18:51:00,70.3,52.4,29.87,NW,323,0.0,0.0,53,0.00,BKN,,0.00,7.0,WeatherDisplay:10.37,2013-09-21 23:51:00,
2013-09-21 18:56:00,70.0,52.1,29.88,NW,323,0.0,0.0,53,0.00,BKN,,0.00,5.0,WeatherDisplay:10.37,2013-09-21 23:56:00,
2013-09-21 19:01:00,69.6,52.2,29.88,NW,323,0.0,0.0,54,0.00,FEW,,0.00,0.0,WeatherDisplay:10.37,2013-09-22 00:01:00,
2013-09-21 19:06:00,69.2,52.3,29.88,NW,322,0.0,0.0,55,0.00,FEW,,0.00,0.0,WeatherDisplay:10.37,2013-09-22 00:06:00,
2013-09-21 19:11:00,68.8,52.9,29.88,NW,322,0.0,0.0,57,0.00,FEW,,0.00,0.0,WeatherDisplay:10.37,2013-09-22 00:11:00,
2013-09-21 19:16:00,68.4,53.5,29.88,NW,322,0.0,0.0,59,0.00,FEW,,0.00,0.0,WeatherDisplay:10.37,2013-09-22 00:16:00,
2013-09-21 19:21:00,67.9,53.5,29.88,NW,322,0.0,0.0,60,0.00,FEW,,0.00,0.0,WeatherDisplay:10.37,2013-09-22 00:21:00,
2013-09-21 19:26:00,67.4,53.5,29.88,NW,323,0.0,0.0,61,0.00,FEW,,0.00,0.0,WeatherDisplay:10.37,2013-09-22 00:26:00,
2013-09-21 19:31:00,66.8,53.8,29.88,NW,323,0.0,0.0,63,0.00,FEW,,0.00,0.0,WeatherDisplay:10.37,2013-09-22 00:31:00,
2013-09-21 19:36:00,66.2,53.7,29.89,NW,323,0.0,0.0,64,0.00,FEW,,0.00,0.0,WeatherDisplay:10.37,2013-09-22 00:36:00,
2013-09-21 19:41:00,65.6,53.5,29.89,NW,323,0.0,0.0,65,0.00,FEW,,0.00,0.0,WeatherDisplay:10.37,2013-09-22 00:41:00,
2013-09-21 19:46:00,65.1,53.0,29.89,NW,322,0.0,0.0,65,0.00,FEW,,0.00,0.0,WeatherDisplay:10.37,2013-09-22 00:46:00,
2013-09-21 19:51:00,64.6,53.4,29.89,NW,323,0.0,0.0,67,0.00,FEW,,0.00,0.0,WeatherDisplay:10.37,2013-09-22 00:51:00,
2013-09-21 19:57:00,64.1,53.3,29.89,NW,322,0.0,0.0,68,0.00,FEW,,0.00,0.0,WeatherDisplay:10.37,2013-09-22 00:57:00,
2013-09-21 20:02:00,63.6,53.2,29.89,NW,322,0.0,0.0,69,0.00,FEW,,0.00,0.0,WeatherDisplay:10.37,2013-09-22 01:02:00,
2013-09-21 20:07:00,63.1,52.8,29.90,NW,323,0.0,0.0,69,0.00,FEW,,0.00,0.0,WeatherDisplay:10.37,2013-09-22 01:07:00,
2013-09-21 20:12:00,62.6,52.7,29.90,NW,322,0.0,0.0,70,0.00,FEW,,0.00,0.0,WeatherDisplay:10.37,2013-09-22 01:12:00,
2013-09-21 20:17:00,62.2,52.7,29.90,NW,323,0.0,0.0,71,0.00,FEW,,0.00,0.0,WeatherDisplay:10.37,2013-09-22 01:17:00,
2013-09-21 20:22:00,61.8,52.7,29.90,NW,323,0.0,0.0,72,0.00,FEW,,0.00,0.0,WeatherDisplay:10.37,2013-09-22 01:22:00,
2013-09-21 20:27:00,61.3,52.6,29.90,NW,322,0.0,0.0,73,0.00,FEW,,0.00,0.0,WeatherDisplay:10.37,2013-09-22 01:27:00,
2013-09-21 20:32:00,60.9,52.6,29.90,NW,322,0.0,0.0,74,0.00,FEW,,0.00,0.0,WeatherDisplay:10.37,2013-09-22 01:32:00,
2013-09-21 20:37:00,60.5,52.5,29.91,NW,322,0.0,0.0,75,0.00,FEW,,0.00,0.0,WeatherDisplay:10.37,2013-09-22 01:37:00,
2013-09-21 20:42:00,60.1,52.5,29.91,NW,323,0.0,0.0,76,0.00,FEW,,0.00,0.0,WeatherDisplay:10.37,2013-09-22 01:42:00,
2013-09-21 20:47:00,59.6,52.4,29.91,NW,323,0.0,0.0,77,0.00,FEW,,0.00,0.0,WeatherDisplay:10.37,2013-09-22 01:47:00,
2013-09-21 20:52:00,59.2,52.0,29.91,NW,323,0.0,0.0,77,0.00,FEW,,0.00,0.0,WeatherDisplay:10.37,2013-09-22 01:52:00,
2013-09-21 20:57:00,59.0,51.8,29.91,NW,322,0.0,0.0,77,0.00,FEW,,0.00,0.0,WeatherDisplay:10.37,2013-09-22 01:57:00,
2013-09-21 21:02:00,58.7,51.9,29.91,NW,322,0.0,0.0,78,0.00,FEW,,0.00,0.0,WeatherDisplay:10.37,2013-09-22 02:02:00,
2013-09-21 21:07:00,58.4,51.9,29.91,North,360,4.6,4.6,79,0.00,FEW,,0.00,0.0,WeatherDisplay:10.37,2013-09-22 02:07:00,
2013-09-21 21:12:00,58.1,52.3,29.92,North,360,0.0,0.0,81,0.00,FEW,,0.00,0.0,WeatherDisplay:10.37,2013-09-22 02:12:00,
2013-09-21 21:17:00,57.7,52.2,29.92,North,360,0.0,0.0,82,0.00,FEW,,0.00,0.0,WeatherDisplay:10.37,2013-09-22 02:17:00,
2013-09-21 21:22:00,57.5,52.0,29.92,North,360,0.0,0.0,82,0.00,FEW,,0.00,0.0,WeatherDisplay:10.37,2013-09-22 02:22:00,
2013-09-21 21:27:00,57.2,51.8,29.92,North,360,0.0,0.0,82,0.00,FEW,,0.00,0.0,WeatherDisplay:10.37,2013-09-22 02:27:00,
2013-09-21 21:32:00,57.0,51.6,29.92,North,360,0.0,0.0,82,0.00,FEW,,0.00,0.0,WeatherDisplay:10.37,2013-09-22 02:32:00,
2013-09-21 21:37:00,56.7,51.3,29.92,North,360,0.0,0.0,82,0.00,FEW,,0.00,0.0,WeatherDisplay:10.37,2013-09-22 02:37:00,
2013-09-21 21:42:00,56.5,51.1,29.92,North,360,0.0,0.0,82,0.00,FEW,,0.00,0.0,WeatherDisplay:10.37,2013-09-22 02:42:00,
2013-09-21 21:47:00,56.2,50.8,29.93,North,360,0.0,0.0,82,0.00,FEW,,0.00,0.0,WeatherDisplay:10.37,2013-09-22 02:47:00,
2013-09-21 21:52:00,56.0,50.6,29.92,North,360,0.0,0.0,82,0.00,FEW,,0.00,0.0,WeatherDisplay:10.37,2013-09-22 02:52:00,
2013-09-21 21:57:00,55.7,50.3,29.92,North,360,0.0,0.0,82,0.00,FEW,,0.00,0.0,WeatherDisplay:10.37,2013-09-22 02:57:00,
2013-09-21 22:02:00,55.5,50.1,29.92,North,360,0.0,0.0,82,0.00,FEW,,0.00,0.0,WeatherDisplay:10.37,2013-09-22 03:02:00,
2013-09-21 22:07:00,55.3,49.9,29.92,North,360,0.0,0.0,82,0.00,FEW,,0.00,0.0,WeatherDisplay:10.37,2013-09-22 03:07:00,
2013-09-21 22:12:00,55.1,50.0,29.92,North,360,0.0,0.0,83,0.00,FEW,,0.00,0.0,WeatherDisplay:10.37,2013-09-22 03:12:00,
2013-09-21 22:17:00,54.8,49.7,29.93,North,360,0.0,0.0,83,0.00,FEW,,0.00,0.0,WeatherDisplay:10.37,2013-09-22 03:17:00,
2013-09-21 22:22:00,54.6,49.9,29.93,North,360,0.0,0.0,84,0.00,FEW,,0.00,0.0,WeatherDisplay:10.37,2013-09-22 03:22:00,
2013-09-21 22:27:00,54.4,49.7,29.93,North,360,0.0,0.0,84,0.00,FEW,,0.00,0.0,WeatherDisplay:10.37,2013-09-22 03:27:00,
2013-09-21 22:32:00,54.2,49.5,29.93,North,360,0.0,0.0,84,0.00,FEW,,0.00,0.0,WeatherDisplay:10.37,2013-09-22 03:32:00,
2013-09-21 22:37:00,54.0,49.3,29.93,North,360,0.0,0.0,84,0.00,FEW,,0.00,0.0,WeatherDisplay:10.37,2013-09-22 03:37:00,
2013-09-21 22:42:00,53.9,49.5,29.93,North,360,0.0,0.0,85,0.00,FEW,,0.00,0.0,WeatherDisplay:10.37,2013-09-22 03:42:00,
2013-09-21 22:47:00,53.7,49.3,29.93,North,360,0.0,0.0,85,0.00,FEW,,0.00,0.0,WeatherDisplay:10.37,2013-09-22 03:47:00,
2013-09-21 22:52:00,53.5,49.1,29.93,North,360,0.0,0.0,85,0.00,FEW,,0.00,0.0,WeatherDisplay:10.37,2013-09-22 03:52:00,
2013-09-21 22:57:00,53.3,48.9,29.94,North,360,0.0,0.0,85,0.00,FEW,,0.00,0.0,WeatherDisplay:10.37,2013-09-22 03:57:00,
2013-09-21 23:01:00,53.1,48.7,29.93,North,360,0.0,0.0,85,0.00,FEW,,0.00,0.0,WeatherDisplay:10.37,2013-09-22 04:01:00,
2013-09-21 23:06:00,52.9,48.5,29.94,North,360,0.0,0.0,85,0.00,FEW,,0.00,0.0,WeatherDisplay:10.37,2013-09-22 04:06:00,
2013-09-21 23:11:00,52.7,48.3,29.94,North,360,0.0,0.0,85,0.00,FEW,,0.00,0.0,WeatherDisplay:10.37,2013-09-22 04:11:00,
2013-09-21 23:16:00,52.6,48.2,29.94,North,360,0.0,0.0,85,0.00,FEW,,0.00,0.0,WeatherDisplay:10.37,2013-09-22 04:16:00,
2013-09-21 23:21:00,52.4,48.0,29.94,North,360,0.0,0.0,85,0.00,FEW,,0.00,0.0,WeatherDisplay:10.37,2013-09-22 04:21:00,
2013-09-21 23:26:00,52.2,47.8,29.94,North,360,0.0,0.0,85,0.00,FEW,,0.00,0.0,WeatherDisplay:10.37,2013-09-22 04:26:00,
2013-09-21 23:31:00,52.0,47.6,29.94,North,360,0.0,0.0,85,0.00,FEW,,0.00,0.0,WeatherDisplay:10.37,2013-09-22 04:31:00,
2013-09-21 23:36:00,51.8,47.4,29.94,North,360,0.0,0.0,85,0.00,FEW,,0.00,0.0,WeatherDisplay:10.37,2013-09-22 04:36:00,
2013-09-21 23:41:00,51.7,47.3,29.94,North,360,0.0,0.0,85,0.00,FEW,,0.00,0.0,WeatherDisplay:10.37,2013-09-22 04:41:00,
2013-09-21 23:46:00,51.5,47.1,29.94,North,360,0.0,0.0,85,0.00,FEW,,0.00,0.0,WeatherDisplay:10.37,2013-09-22 04:46:00,
2013-09-21 23:51:00,51.4,47.0,29.94,North,360,0.0,0.0,85,0.00,FEW,,0.00,0.0,WeatherDisplay:10.37,2013-09-22 04:51:00,
2013-09-21 23:56:00,51.2,46.8,29.94,North,360,0.0,0.0,85,0.00,FEW,,0.00,0.0,WeatherDisplay:10.37,2013-09-22 04:56:00,